• In Belarus
  • List of Countries
  • For 7 days
  • Water Temperature
  • Satellite Maps
  • Weather Map
  • Weather Widgets
  • user-avatar
    Login

    Hourly Weather Kamenskiy

    Today, 25 April, Wednesday

    Time Temperature Precipitation Wind Pressure Humidity
    00:00 +7°C° 0 mm 2 mps 738 mmHg 55%
    01:00 +7°C° 0 mm 2 mps 738 mmHg 56%
    02:00 +7°C° 0 mm 2 mps 738 mmHg 57%
    03:00 +7°C° 0 mm 2 mps 737 mmHg 58%
    04:00 +7°C° 0.4 mm 2 mps 737 mmHg 63%
    05:00 +5°C° 0.4 mm 3 mps 737 mmHg 68%
    06:00 +5°C° 0.4 mm 3 mps 737 mmHg 73%
    07:00 +7°C° 0.5 mm 3 mps 737 mmHg 76%
    08:00 +7°C° 0.5 mm 3 mps 737 mmHg 79%
    09:00 +8°C° 0.5 mm 3 mps 737 mmHg 81%
    10:00 +10°C° 0.1 mm 4 mps 737 mmHg 76%
    11:00 +12°C° 0.1 mm 4 mps 737 mmHg 70%
    12:00 +13°C° 0.1 mm 4 mps 737 mmHg 65%
    13:00 +14°C° 0.1 mm 5 mps 736 mmHg 61%
    14:00 +15°C° 0.1 mm 5 mps 736 mmHg 56%
    15:00 +15°C° 0.1 mm 6 mps 736 mmHg 52%
    16:00 +15°C° 0 mm 5 mps 735 mmHg 56%
    17:00 +14°C° 0 mm 5 mps 735 mmHg 60%
    18:00 +14°C° 0 mm 5 mps 735 mmHg 64%
    19:00 +13°C° 0.1 mm 5 mps 735 mmHg 70%
    20:00 +12°C° 0.1 mm 4 mps 735 mmHg 77%
    21:00 +11°C° 0.1 mm 4 mps 735 mmHg 83%
    22:00 +11°C° 0.1 mm 4 mps 735 mmHg 86%
    23:00 +10°C° 0.1 mm 4 mps 735 mmHg 88%

    Tomorrow, 26 April, Thursday

    Time Temperature Precipitation Wind Pressure Humidity
    00:00 +10°C° 0.1 mm 4 mps 734 mmHg 91%
    01:00 +10°C° 0.1 mm 4 mps 734 mmHg 92%
    02:00 +10°C° 0.1 mm 4 mps 733 mmHg 92%
    03:00 +9°C° 0.1 mm 5 mps 733 mmHg 93%
    04:00 +9°C° 1.2 mm 6 mps 732 mmHg 93%
    05:00 +10°C° 1.2 mm 6 mps 732 mmHg 93%
    06:00 +10°C° 1.2 mm 7 mps 731 mmHg 93%
    07:00 +11°C° 0.5 mm 7 mps 731 mmHg 90%
    08:00 +12°C° 0.5 mm 7 mps 731 mmHg 88%
    09:00 +12°C° 0.5 mm 7 mps 731 mmHg 85%
    10:00 +13°C° 0.5 mm 8 mps 731 mmHg 79%
    11:00 +15°C° 0.5 mm 9 mps 731 mmHg 72%
    12:00 +16°C° 0.5 mm 9 mps 731 mmHg 66%
    13:00 +16°C° 0.2 mm 10 mps 732 mmHg 62%
    14:00 +16°C° 0.2 mm 10 mps 732 mmHg 58%
    15:00 +16°C° 0.2 mm 10 mps 733 mmHg 54%
    16:00 +14°C° 0 mm 10 mps 733 mmHg 56%
    17:00 +13°C° 0 mm 9 mps 734 mmHg 58%
    18:00 +12°C° 0 mm 9 mps 734 mmHg 60%
    19:00 +11°C° 0 mm 8 mps 735 mmHg 62%
    20:00 +10°C° 0 mm 6 mps 736 mmHg 65%
    21:00 +8°C° 0 mm 5 mps 737 mmHg 67%
    22:00 +8°C° 0 mm 5 mps 737 mmHg 69%
    23:00 +8°C° 0 mm 5 mps 738 mmHg 71%

    Day after tomorrow, 27 April, Friday

    Time Temperature Precipitation Wind Pressure Humidity
    00:00 +7°C° 0 mm 5 mps 738 mmHg 72%
    01:00 +7°C° 0 mm 4 mps 738 mmHg 75%
    02:00 +6°C° 0 mm 4 mps 739 mmHg 78%
    03:00 +7°C° 0 mm 3 mps 739 mmHg 80%
    04:00 +7°C° 0 mm 3 mps 739 mmHg 80%
    05:00 +7°C° 0 mm 3 mps 740 mmHg 80%
    06:00 +7°C° 0 mm 2 mps 740 mmHg 80%
    07:00 +8°C° 0 mm 3 mps 740 mmHg 76%
    08:00 +9°C° 0 mm 3 mps 741 mmHg 73%
    09:00 +10°C° 0 mm 3 mps 741 mmHg 70%
    10:00 +11°C° 0 mm 3 mps 741 mmHg 67%
    11:00 +12°C° 0 mm 3 mps 741 mmHg 64%
    12:00 +13°C° 0 mm 3 mps 741 mmHg 61%
    13:00 +13°C° 0 mm 3 mps 741 mmHg 61%
    14:00 +13°C° 0 mm 3 mps 741 mmHg 61%
    15:00 +13°C° 0 mm 3 mps 740 mmHg 61%
    16:00 +12°C° 0.2 mm 3 mps 740 mmHg 66%
    17:00 +11°C° 0.2 mm 3 mps 740 mmHg 71%
    18:00 +11°C° 0.2 mm 3 mps 739 mmHg 76%
    19:00 +10°C° 0.2 mm 2 mps 739 mmHg 80%
    20:00 +9°C° 0.2 mm 2 mps 739 mmHg 83%
    21:00 +9°C° 0.2 mm 2 mps 740 mmHg 87%
    22:00 +9°C° 0.2 mm 2 mps 740 mmHg 88%
    23:00 +8°C° 0.2 mm 2 mps 740 mmHg 90%

    28 April, Saturday

    Time Temperature Precipitation Wind Pressure Humidity
    00:00 +8°C° 0.2 mm 3 mps 740 mmHg 91%
    01:00 +8°C° 0.2 mm 3 mps 740 mmHg 92%
    02:00 +8°C° 0.2 mm 3 mps 740 mmHg 93%
    03:00 +8°C° 0.2 mm 3 mps 740 mmHg 93%
    04:00 +8°C° 0.1 mm 3 mps 740 mmHg 93%
    05:00 +7°C° 0.1 mm 3 mps 740 mmHg 93%
    06:00 +6°C° 0.1 mm 4 mps 741 mmHg 92%
    07:00 +7°C° 0 mm 4 mps 741 mmHg 84%
    08:00 +10°C° 0 mm 4 mps 741 mmHg 75%
    09:00 +10°C° 0 mm 5 mps 742 mmHg 67%
    10:00 +12°C° 0 mm 5 mps 742 mmHg 61%
    11:00 +13°C° 0 mm 6 mps 742 mmHg 54%
    12:00 +14°C° 0 mm 6 mps 743 mmHg 48%
    13:00 +15°C° 0 mm 6 mps 743 mmHg 46%
    14:00 +15°C° 0 mm 7 mps 743 mmHg 45%
    15:00 +15°C° 0 mm 7 mps 743 mmHg 43%
    16:00 +15°C° 0 mm 6 mps 743 mmHg 45%
    17:00 +14°C° 0 mm 6 mps 744 mmHg 47%
    18:00 +14°C° 0 mm 5 mps 744 mmHg 49%
    19:00 +12°C° 0 mm 4 mps 744 mmHg 53%
    20:00 +11°C° 0 mm 4 mps 745 mmHg 58%
    21:00 +10°C° 0 mm 3 mps 745 mmHg 63%
    22:00 +9°C° 0 mm 3 mps 746 mmHg 65%
    23:00 +9°C° 0 mm 3 mps 746 mmHg 67%

    29 April, Sunday

    Time Temperature Precipitation Wind Pressure Humidity
    00:00 +8°C° 0 mm 3 mps 746 mmHg 69%
    01:00 +8°C° 0 mm 3 mps 747 mmHg 70%
    02:00 +7°C° 0 mm 3 mps 747 mmHg 71%
    03:00 +7°C° 0 mm 2 mps 747 mmHg 72%
    04:00 +7°C° 0 mm 2 mps 747 mmHg 73%
    05:00 +7°C° 0 mm 2 mps 748 mmHg 73%
    06:00 +6°C° 0 mm 2 mps 748 mmHg 74%
    07:00 +8°C° 0 mm 2 mps 748 mmHg 68%
    08:00 +10°C° 0 mm 3 mps 748 mmHg 62%
    09:00 +12°C° 0 mm 3 mps 748 mmHg 55%
    10:00 +14°C° 0 mm 3 mps 748 mmHg 52%
    11:00 +15°C° 0 mm 4 mps 748 mmHg 49%
    12:00 +17°C° 0 mm 4 mps 747 mmHg 46%
    13:00 +17°C° 0 mm 5 mps 747 mmHg 46%
    14:00 +19°C° 0 mm 6 mps 746 mmHg 46%
    15:00 +19°C° 0 mm 6 mps 746 mmHg 46%
    16:00 +19°C° 0 mm 6 mps 746 mmHg 49%
    17:00 +19°C° 0 mm 5 mps 745 mmHg 52%
    18:00 +19°C° 0 mm 5 mps 745 mmHg 55%
    19:00 +16°C° 0 mm 5 mps 745 mmHg 60%
    20:00 +15°C° 0 mm 5 mps 745 mmHg 64%
    21:00 +14°C° 0 mm 5 mps 745 mmHg 69%
    22:00 +14°C° 0 mm 5 mps 745 mmHg 71%
    23:00 +13°C° 0 mm 5 mps 745 mmHg 72%

    30 April, Monday

    Time Temperature Precipitation Wind Pressure Humidity
    00:00 +13°C° 0 mm 5 mps 745 mmHg 74%
    01:00 +13°C° 0 mm 5 mps 744 mmHg 75%
    02:00 +12°C° 0 mm 5 mps 744 mmHg 76%
    03:00 +12°C° 0 mm 5 mps 744 mmHg 77%
    04:00 +12°C° 0 mm 5 mps 744 mmHg 78%
    05:00 +12°C° 0 mm 5 mps 744 mmHg 79%
    06:00 +11°C° 0 mm 4 mps 744 mmHg 79%
    07:00 +13°C° 0 mm 5 mps 744 mmHg 74%
    08:00 +15°C° 0 mm 5 mps 744 mmHg 69%
    09:00 +16°C° 0 mm 5 mps 744 mmHg 64%
    10:00 +19°C° 0 mm 5 mps 744 mmHg 59%
    11:00 +20°C° 0 mm 5 mps 744 mmHg 55%
    12:00 +22°C° 0 mm 5 mps 744 mmHg 50%
    13:00 +22°C° 0 mm 5 mps 744 mmHg 49%
    14:00 +22°C° 0 mm 5 mps 744 mmHg 47%
    15:00 +23°C° 0 mm 5 mps 743 mmHg 45%
    16:00 +22°C° 0 mm 5 mps 743 mmHg 48%
    17:00 +22°C° 0 mm 4 mps 743 mmHg 50%
    18:00 +22°C° 0 mm 4 mps 742 mmHg 52%
    19:00 +20°C° 0 mm 4 mps 742 mmHg 57%
    20:00 +19°C° 0 mm 4 mps 742 mmHg 62%
    21:00 +17°C° 0 mm 4 mps 742 mmHg 67%
    22:00 +15°C° 0 mm 4 mps 742 mmHg 69%
    23:00 +15°C° 0 mm 4 mps 742 mmHg 72%
    Show more